• In Österreich
  • Länderverzeichnis
  • Für 7 Tage
  • Wassertemperatur
  • Satellitenkarten
  • Wetterkarte
  • News
  • Widgets
  • user-avatar
    Anmelden

    Stündliche Wetter Santa Fe

    Heute, 17 Dezember, Sonntag

    Zeit Temperatur Niederschläge Wind Luftdruck Luftfeuchtigkeit
    00:00 +35°C° 0,9 mm 6 m/S 746 mmHg 43%
    01:00 +32°C° 0,9 mm 5 m/S 747 mmHg 56%
    02:00 +28°C° 0,9 mm 4 m/S 747 mmHg 69%
    03:00 +27°C° 1,3 mm 5 m/S 749 mmHg 76%
    04:00 +26°C° 1,3 mm 5 m/S 751 mmHg 83%
    05:00 +24°C° 1,3 mm 6 m/S 753 mmHg 90%
    06:00 +23°C° 0,9 mm 7 m/S 755 mmHg 85%
    07:00 +21°C° 0,9 mm 7 m/S 756 mmHg 80%
    08:00 +18°C° 0,9 mm 7 m/S 757 mmHg 75%
    09:00 +22°C° 0,2 mm 7 m/S 758 mmHg 62%
    10:00 +24°C° 0,2 mm 6 m/S 759 mmHg 49%
    11:00 +28°C° 0,2 mm 6 m/S 760 mmHg 36%
    12:00 +29°C° 0 mm 6 m/S 760 mmHg 32%
    13:00 +30°C° 0 mm 6 m/S 760 mmHg 27%
    14:00 +33°C° 0 mm 6 m/S 760 mmHg 22%
    15:00 +32°C° 0 mm 6 m/S 760 mmHg 23%
    16:00 +32°C° 0 mm 6 m/S 759 mmHg 24%
    17:00 +30°C° 0 mm 6 m/S 759 mmHg 25%
    18:00 +28°C° 0 mm 6 m/S 760 mmHg 29%
    19:00 +26°C° 0 mm 5 m/S 760 mmHg 34%
    20:00 +23°C° 0 mm 4 m/S 761 mmHg 38%
    21:00 +22°C° 0 mm 4 m/S 762 mmHg 43%
    22:00 +21°C° 0 mm 5 m/S 762 mmHg 48%
    23:00 +20°C° 0 mm 5 m/S 763 mmHg 54%

    Morgen, 18 Dezember, Montag

    Zeit Temperatur Niederschläge Wind Luftdruck Luftfeuchtigkeit
    00:00 +19°C° 0 mm 5 m/S 763 mmHg 56%
    01:00 +18°C° 0 mm 4 m/S 763 mmHg 58%
    02:00 +18°C° 0 mm 4 m/S 763 mmHg 60%
    03:00 +17°C° 0 mm 4 m/S 763 mmHg 59%
    04:00 +15°C° 0 mm 4 m/S 763 mmHg 59%
    05:00 +14°C° 0 mm 4 m/S 763 mmHg 58%
    06:00 +17°C° 0 mm 4 m/S 763 mmHg 52%
    07:00 +18°C° 0 mm 4 m/S 764 mmHg 45%
    08:00 +20°C° 0 mm 5 m/S 764 mmHg 39%
    09:00 +22°C° 0 mm 5 m/S 763 mmHg 34%
    10:00 +26°C° 0 mm 4 m/S 763 mmHg 29%
    11:00 +28°C° 0 mm 4 m/S 762 mmHg 24%
    12:00 +29°C° 0 mm 4 m/S 761 mmHg 22%
    13:00 +32°C° 0 mm 4 m/S 761 mmHg 20%
    14:00 +33°C° 0 mm 4 m/S 760 mmHg 19%
    15:00 +33°C° 0 mm 4 m/S 759 mmHg 20%
    16:00 +33°C° 0 mm 4 m/S 758 mmHg 21%
    17:00 +33°C° 0 mm 4 m/S 758 mmHg 21%
    18:00 +30°C° 0 mm 4 m/S 758 mmHg 26%
    19:00 +28°C° 0 mm 4 m/S 758 mmHg 31%
    20:00 +26°C° 0 mm 4 m/S 758 mmHg 36%
    21:00 +25°C° 0 mm 4 m/S 759 mmHg 40%
    22:00 +25°C° 0 mm 4 m/S 759 mmHg 44%
    23:00 +23°C° 0 mm 4 m/S 760 mmHg 48%

    übermorgen, 19 Dezember, Dienstag

    Zeit Temperatur Niederschläge Wind Luftdruck Luftfeuchtigkeit
    00:00 +23°C° 0 mm 4 m/S 759 mmHg 53%
    01:00 +22°C° 0 mm 4 m/S 759 mmHg 59%
    02:00 +22°C° 0 mm 4 m/S 759 mmHg 64%
    03:00 +21°C° 0,1 mm 4 m/S 759 mmHg 68%
    04:00 +21°C° 0,1 mm 4 m/S 759 mmHg 71%
    05:00 +21°C° 0,1 mm 4 m/S 759 mmHg 74%
    06:00 +22°C° 0,3 mm 4 m/S 759 mmHg 73%
    07:00 +22°C° 0,3 mm 4 m/S 760 mmHg 72%
    08:00 +23°C° 0,3 mm 4 m/S 760 mmHg 70%
    09:00 +26°C° 0,4 mm 3 m/S 760 mmHg 66%
    10:00 +27°C° 0,4 mm 3 m/S 760 mmHg 62%
    11:00 +29°C° 0,4 mm 3 m/S 760 mmHg 57%
    12:00 +29°C° 0,3 mm 4 m/S 760 mmHg 57%
    13:00 +29°C° 0,3 mm 5 m/S 759 mmHg 57%
    14:00 +29°C° 0,3 mm 5 m/S 759 mmHg 56%
    15:00 +29°C° 0,3 mm 6 m/S 758 mmHg 57%
    16:00 +28°C° 0,3 mm 6 m/S 758 mmHg 59%
    17:00 +27°C° 0,3 mm 6 m/S 758 mmHg 60%
    18:00 +24°C° 0,8 mm 6 m/S 758 mmHg 67%
    19:00 +23°C° 0,8 mm 6 m/S 758 mmHg 75%
    20:00 +21°C° 0,8 mm 6 m/S 758 mmHg 83%
    21:00 +21°C° 0,5 mm 5 m/S 758 mmHg 85%
    22:00 +21°C° 0,5 mm 4 m/S 758 mmHg 87%
    23:00 +21°C° 0,5 mm 3 m/S 758 mmHg 88%

    20 Dezember, Mittwoch

    Zeit Temperatur Niederschläge Wind Luftdruck Luftfeuchtigkeit
    00:00 +21°C° 0 mm 3 m/S 758 mmHg 90%
    01:00 +20°C° 0 mm 3 m/S 757 mmHg 92%
    02:00 +20°C° 0 mm 2 m/S 757 mmHg 94%
    03:00 +20°C° 0,1 mm 2 m/S 757 mmHg 95%
    04:00 +20°C° 0,1 mm 2 m/S 757 mmHg 95%
    05:00 +20°C° 0,1 mm 2 m/S 757 mmHg 96%
    06:00 +23°C° 0 mm 2 m/S 757 mmHg 89%
    07:00 +24°C° 0 mm 2 m/S 757 mmHg 82%
    08:00 +26°C° 0 mm 2 m/S 757 mmHg 76%
    09:00 +29°C° 0 mm 2 m/S 756 mmHg 65%
    10:00 +31°C° 0 mm 2 m/S 756 mmHg 55%
    11:00 +35°C° 0 mm 2 m/S 755 mmHg 45%
    12:00 +36°C° 0 mm 2 m/S 754 mmHg 41%
    13:00 +37°C° 0 mm 2 m/S 754 mmHg 38%
    14:00 +38°C° 0 mm 2 m/S 753 mmHg 35%
    15:00 +38°C° 0 mm 2 m/S 752 mmHg 36%
    16:00 +37°C° 0 mm 2 m/S 752 mmHg 36%
    17:00 +37°C° 0 mm 3 m/S 752 mmHg 37%
    18:00 +35°C° 0 mm 3 m/S 752 mmHg 42%
    19:00 +33°C° 0 mm 3 m/S 752 mmHg 46%
    20:00 +30°C° 0 mm 3 m/S 752 mmHg 51%
    21:00 +29°C° 0 mm 4 m/S 752 mmHg 54%
    22:00 +29°C° 0 mm 4 m/S 752 mmHg 58%
    23:00 +28°C° 0 mm 4 m/S 753 mmHg 61%

    21 Dezember, Donnerstag

    Zeit Temperatur Niederschläge Wind Luftdruck Luftfeuchtigkeit
    00:00 +27°C° 0 mm 4 m/S 753 mmHg 65%
    01:00 +27°C° 0 mm 3 m/S 752 mmHg 68%
    02:00 +26°C° 0 mm 3 m/S 752 mmHg 71%
    03:00 +25°C° 0 mm 3 m/S 752 mmHg 74%
    04:00 +25°C° 0 mm 3 m/S 752 mmHg 77%
    05:00 +24°C° 0 mm 3 m/S 752 mmHg 80%
    06:00 +27°C° 0 mm 3 m/S 753 mmHg 72%
    07:00 +29°C° 0 mm 3 m/S 753 mmHg 65%
    08:00 +31°C° 0 mm 3 m/S 754 mmHg 57%
    09:00 +34°C° 0 mm 2 m/S 753 mmHg 50%
    10:00 +37°C° 0 mm 2 m/S 753 mmHg 43%
    11:00 +39°C° 0 mm 1 m/S 753 mmHg 36%
    12:00 +39°C° 0 mm 1 m/S 752 mmHg 34%
    13:00 +40°C° 0 mm 2 m/S 752 mmHg 32%
    14:00 +40°C° 0 mm 2 m/S 751 mmHg 30%
    15:00 +40°C° 0 mm 2 m/S 751 mmHg 28%
    16:00 +40°C° 0 mm 2 m/S 750 mmHg 27%
    17:00 +40°C° 0 mm 2 m/S 750 mmHg 25%
    18:00 +38°C° 0 mm 2 m/S 750 mmHg 29%
    19:00 +36°C° 0 mm 2 m/S 751 mmHg 32%
    20:00 +34°C° 0 mm 2 m/S 751 mmHg 36%
    21:00 +33°C° 0 mm 3 m/S 751 mmHg 40%
    22:00 +31°C° 0 mm 3 m/S 751 mmHg 44%
    23:00 +30°C° 0 mm 4 m/S 751 mmHg 48%

    22 Dezember, Freitag

    Zeit Temperatur Niederschläge Wind Luftdruck Luftfeuchtigkeit
    00:00 +29°C° 0 mm 3 m/S 751 mmHg 51%
    01:00 +28°C° 0 mm 3 m/S 751 mmHg 54%
    02:00 +28°C° 0 mm 3 m/S 750 mmHg 58%
    03:00 +27°C° 0 mm 3 m/S 750 mmHg 60%
    04:00 +27°C° 0 mm 3 m/S 750 mmHg 63%
    05:00 +26°C° 0 mm 3 m/S 750 mmHg 65%
    06:00 +29°C° 0 mm 3 m/S 751 mmHg 59%
    07:00 +31°C° 0 mm 3 m/S 751 mmHg 53%
    08:00 +34°C° 0 mm 3 m/S 751 mmHg 46%
    09:00 +36°C° 0 mm 3 m/S 751 mmHg 40%
    10:00 +38°C° 0 mm 3 m/S 750 mmHg 34%
    11:00 +40°C° 0 mm 3 m/S 750 mmHg 28%
    12:00 +40°C° 0 mm 2 m/S 749 mmHg 28%
    13:00 +40°C° 0 mm 2 m/S 749 mmHg 28%
    14:00 +40°C° 0 mm 2 m/S 748 mmHg 28%
    15:00 +39°C° 0 mm 1 m/S 748 mmHg 29%
    16:00 +39°C° 0 mm 1 m/S 748 mmHg 30%
    17:00 +39°C° 0 mm 1 m/S 747 mmHg 32%
    18:00 +37°C° 0,6 mm 2 m/S 748 mmHg 38%
    19:00 +35°C° 0,6 mm 3 m/S 749 mmHg 44%
    20:00 +33°C° 0,6 mm 5 m/S 749 mmHg 51%
    21:00 +30°C° 2 mm 4 m/S 750 mmHg 61%
    22:00 +28°C° 2 mm 4 m/S 750 mmHg 71%
    23:00 +26°C° 2 mm 3 m/S 751 mmHg 81%
    Mehr zeigen